Bainbridge, GA

1:07 AM EST on December 18, 2017 (GMT -0500)
Decatur County Industrial

Weather History for KBGE - June, 2013

Change the Weather History Date:

Friday, June 7, 2013

  Actual Average (KTLH) Record (KTLH)
Temperature  
Mean Temperature 83 °F -  
Max Temperature 93 °F 89 °F 102 °F (1933)
Min Temperature 73 °F 67 °F 54 °F (2006)
Cooling Degree Days 18    
Growing Degree Days 33 (Base 50)    
Moisture  
Dew Point 73 °F    
Average Humidity 81    
Maximum Humidity 100    
Minimum Humidity 49    
Precipitation  
Precipitation 0.00 in - - ()
Sea Level Pressure  
Sea Level Pressure 29.81 in    
Wind  
Wind Speed 6 mph (WSW)    
Max Wind Speed 17 mph    
Max Gust Speed 32 mph    
Visibility 9 miles    
Events Rain , Thunderstorm    
Averages and records for this station are not official NWS values.
T = Trace of Precipitation, MM = Missing Value Source: NWS Daily Summary

Daily Weather History Graph

Daily Weather History Graph

Search for Another Location

Airport or City:

Trip Planner

Search our weather history database for the weather conditions in past years. The results will help you decide how hot, cold, wet, or windy it might be!

Date:

Astronomy

Jun. 07, 2013 Rise Set
Actual Time 6:34 AM EDT 8:40 PM EDT
Civil Twilight 6:07 AM EDT 9:08 PM EDT
Nautical Twilight 5:33 AM EDT 9:41 PM EDT
Astronomical Twilight 4:57 AM EDT 10:17 PM EDT
Moon 5:52 AM EDT (6/7) 7:57 PM EDT (6/7)
Length of Visible Light 15h 01m
Length of Day
14h 05m
Waning Crescent, 1% of the Moon is Illuminated
Jun 7
Waning Crescent
Jun 8
New
Jun 16
First Quarter
Jun 23
Full
Jun 30
Last Quarter

Hourly Weather History & Observations

Time (EDT) Temp. Heat Index Dew Point Humidity Pressure Visibility Wind Dir Wind Speed Gust Speed Precip Events Conditions
12:15 AM 73.4 °F - 71.6 °F 94% 29.77 in 10.0 mi WNW 4.6 mph - N/A   Light Drizzle
12:35 AM 73.4 °F - 71.6 °F 94% 29.76 in 10.0 mi Calm Calm - N/A Rain Light Rain
12:55 AM 73.4 °F - 71.6 °F 94% 29.75 in 10.0 mi WNW 5.8 mph - N/A   Light Drizzle
1:15 AM 73.4 °F - 71.6 °F 94% 29.75 in 10.0 mi NW 5.8 mph - N/A   Scattered Clouds
1:35 AM 73.4 °F - 71.6 °F 94% 29.74 in 10.0 mi West 6.9 mph - N/A   Clear
1:55 AM 73.4 °F - 71.6 °F 94% 29.73 in 10.0 mi West 5.8 mph - N/A   Clear
2:15 AM 73.4 °F - 71.6 °F 94% 29.73 in 10.0 mi West 4.6 mph - N/A   Clear
2:35 AM 73.4 °F - 71.6 °F 94% 29.72 in 10.0 mi West 3.5 mph - N/A   Clear
2:55 AM 73.4 °F - 71.6 °F 94% 29.72 in 10.0 mi Calm Calm - N/A   Clear
3:15 AM 73.4 °F - 71.6 °F 94% 29.73 in 7.0 mi SW 4.6 mph - N/A   Clear
3:35 AM 73.4 °F - 71.6 °F 94% 29.72 in 5.0 mi Calm Calm - N/A   Mostly Cloudy
3:55 AM 73.4 °F - 71.6 °F 94% 29.72 in 5.0 mi Calm Calm - N/A   Overcast
4:15 AM 73.4 °F - 71.6 °F 94% 29.73 in 5.0 mi Calm Calm - N/A   Overcast
4:35 AM 73.4 °F - 71.6 °F 94% 29.73 in 2.0 mi WSW 5.8 mph - N/A   Overcast
4:55 AM 73.4 °F - 71.6 °F 94% 29.74 in 5.0 mi WSW 5.8 mph - N/A   Overcast
5:15 AM 73.4 °F - 71.6 °F 94% 29.76 in 7.0 mi West 6.9 mph - N/A   Overcast
5:35 AM 73.4 °F - 71.6 °F 94% 29.77 in 7.0 mi West 5.8 mph - N/A   Overcast
5:55 AM 73.4 °F - 71.6 °F 94% 29.78 in 10.0 mi WSW 5.8 mph - N/A   Overcast
6:15 AM 73.4 °F - 71.6 °F 94% 29.78 in 10.0 mi WSW 4.6 mph - N/A   Mostly Cloudy
6:35 AM 73.4 °F - 71.6 °F 94% 29.78 in 10.0 mi SW 3.5 mph - N/A   Scattered Clouds
6:55 AM 73.4 °F - 71.6 °F 94% 29.79 in 10.0 mi SW 4.6 mph - N/A   Clear
7:15 AM 73.4 °F - 71.6 °F 94% 29.79 in 10.0 mi Calm Calm - N/A   Clear
7:35 AM 73.4 °F - 71.6 °F 94% 29.80 in 10.0 mi Calm Calm - N/A   Clear
7:55 AM 73.4 °F - 71.6 °F 94% 29.80 in 10.0 mi Calm Calm - N/A   Clear
8:15 AM 73.4 °F - 71.6 °F 94% 29.81 in 10.0 mi Calm Calm - N/A   Clear
8:35 AM 77.0 °F - 73.4 °F 89% 29.81 in 10.0 mi SSW 3.5 mph - N/A   Clear
8:55 AM 77.0 °F - 73.4 °F 89% 29.82 in 10.0 mi SSW 4.6 mph - N/A   Clear
9:15 AM 78.8 °F - 75.2 °F 89% 29.82 in 10.0 mi Calm Calm - N/A   Clear
9:35 AM 78.8 °F - 73.4 °F 83% 29.84 in 10.0 mi WSW 5.8 mph - N/A   Scattered Clouds
9:55 AM 80.6 °F 87.1 °F 77.0 °F 89% 29.84 in 10.0 mi WSW 9.2 mph - N/A   Mostly Cloudy
10:15 AM 80.6 °F 87.1 °F 77.0 °F 89% 29.84 in 10.0 mi WSW 5.8 mph - N/A   Mostly Cloudy
10:35 AM 84.2 °F 94.1 °F 77.0 °F 79% 29.84 in 10.0 mi West 5.8 mph - N/A   Mostly Cloudy
10:55 AM 84.2 °F 94.1 °F 77.0 °F 79% 29.84 in 10.0 mi WSW 10.4 mph - N/A   Scattered Clouds
11:15 AM 84.2 °F 94.1 °F 77.0 °F 79% 29.84 in 10.0 mi WSW 9.2 mph - N/A   Scattered Clouds
11:35 AM 86.0 °F 96.9 °F 77.0 °F 74% 29.84 in 10.0 mi SW 10.4 mph - N/A   Scattered Clouds
11:55 AM 86.0 °F 95.1 °F 75.2 °F 70% 29.84 in 10.0 mi WSW 10.4 mph 16.1 mph N/A   Scattered Clouds
12:15 PM 87.8 °F 97.6 °F 75.2 °F 66% 29.84 in 10.0 mi WSW 13.8 mph - N/A   Clear
12:35 PM 87.8 °F 95.6 °F 73.4 °F 62% 29.84 in 10.0 mi SW 12.7 mph - N/A   Clear
12:55 PM 87.8 °F 95.6 °F 73.4 °F 62% 29.83 in 10.0 mi West 11.5 mph - N/A   Clear
1:15 PM 89.6 °F 98.2 °F 73.4 °F 59% 29.83 in 10.0 mi WSW 10.4 mph - N/A   Scattered Clouds
1:35 PM 91.4 °F 100.1 °F 73.4 °F 55% 29.83 in 10.0 mi West 9.2 mph - N/A   Clear
1:55 PM 91.4 °F 100.1 °F 73.4 °F 55% 29.83 in 10.0 mi WSW 10.4 mph - N/A   Clear
2:15 PM 91.4 °F 98.4 °F 71.6 °F 52% 29.83 in 10.0 mi SW 12.7 mph 21.9 mph N/A   Clear
2:35 PM 93.2 °F 100.5 °F 71.6 °F 49% 29.82 in 10.0 mi West 12.7 mph 21.9 mph N/A   Clear
2:55 PM 93.2 °F 100.5 °F 71.6 °F 49% 29.82 in 10.0 mi WSW 11.5 mph - N/A   Clear
3:15 PM 91.4 °F 98.4 °F 71.6 °F 52% 29.81 in 10.0 mi WSW 12.7 mph - N/A   Scattered Clouds
3:35 PM 89.6 °F 94.7 °F 69.8 °F 52% 29.80 in 10.0 mi WSW 8.1 mph - N/A   Scattered Clouds
3:55 PM 87.8 °F 92.6 °F 69.8 °F 55% 29.80 in 10.0 mi SW 9.2 mph - N/A   Scattered Clouds
4:15 PM 78.8 °F - 73.4 °F 83% 29.82 in 3.0 mi West 17.3 mph 28.8 mph N/A Rain Heavy Rain
4:35 PM 77.0 °F - 69.8 °F 78% 29.82 in 3.0 mi West 15.0 mph 24.2 mph N/A Rain Heavy Rain
4:55 PM 73.4 °F - 69.8 °F 88% 29.84 in 1.0 mi WSW 5.8 mph 32.2 mph N/A Rain , Thunderstorm Heavy Thunderstorms and Rain
5:15 PM 80.6 °F 85.4 °F 73.4 °F 79% 29.81 in 10.0 mi SW 3.5 mph - N/A   Mostly Cloudy
5:35 PM 84.2 °F 92.3 °F 75.2 °F 74% 29.80 in 10.0 mi SW 8.1 mph - N/A   Clear
5:55 PM 86.0 °F 95.1 °F 75.2 °F 70% 29.80 in 10.0 mi WSW 6.9 mph - N/A   Clear
6:15 PM 86.0 °F 91.8 °F 71.6 °F 62% 29.79 in 10.0 mi SW 12.7 mph 18.4 mph N/A   Clear
6:35 PM 86.0 °F 91.8 °F 71.6 °F 62% 29.80 in 10.0 mi SW 10.4 mph 17.3 mph N/A   Clear
6:55 PM 86.0 °F 91.8 °F 71.6 °F 62% 29.80 in 10.0 mi SW 10.4 mph - N/A   Clear
7:15 PM 84.2 °F 89.6 °F 71.6 °F 66% 29.81 in 10.0 mi SW 9.2 mph - N/A   Clear
7:35 PM 84.2 °F 89.6 °F 71.6 °F 66% 29.81 in 10.0 mi WSW 11.5 mph 18.4 mph N/A   Scattered Clouds
7:55 PM 84.2 °F 89.6 °F 71.6 °F 66% 29.83 in 10.0 mi WSW 10.4 mph 21.9 mph N/A   Scattered Clouds
8:15 PM 80.6 °F 84.6 °F 71.6 °F 74% 29.83 in 10.0 mi WSW 6.9 mph - N/A   Mostly Cloudy
8:35 PM 78.8 °F - 73.4 °F 83% 29.84 in 10.0 mi WNW 3.5 mph - N/A   Mostly Cloudy
8:55 PM 80.6 °F 85.4 °F 73.4 °F 79% 29.85 in 10.0 mi WSW 5.8 mph - N/A   Scattered Clouds
9:15 PM 78.8 °F - 73.4 °F 83% 29.87 in 10.0 mi WNW 13.8 mph - N/A Thunderstorm Mostly Cloudy
9:35 PM 75.2 °F - 71.6 °F 89% 29.88 in 10.0 mi West 10.4 mph - N/A Rain Rain
9:55 PM 75.2 °F - 73.4 °F 94% 29.88 in 4.0 mi West 8.1 mph - N/A Rain Heavy Rain
10:15 PM 77.0 °F - 73.4 °F 89% 29.89 in 10.0 mi WSW 5.8 mph - N/A   Mostly Cloudy
10:35 PM 77.0 °F - 73.4 °F 89% 29.89 in 10.0 mi Calm Calm - N/A   Scattered Clouds
10:55 PM 73.4 °F - 73.4 °F 100% 29.90 in 10.0 mi Calm Calm - N/A   Clear
11:15 PM 73.4 °F - 71.6 °F 94% 29.90 in 10.0 mi South 3.5 mph - N/A   Clear
11:35 PM 73.4 °F - 71.6 °F 94% 29.91 in 10.0 mi Calm Calm - N/A   Clear
11:55 PM 73.4 °F - 71.6 °F 94% 29.91 in 10.0 mi West 4.6 mph - N/A   Clear